Location: *
(40.9869°N, 22.9942°E)
Time: 20:27:29
(UTC+00:00)

Daily predictions for brighter satellites

Satellite Brightness Start Highest point End
(mag) Time Altitude Azimuth Time Altitude Azimuth Time Altitude Azimuth
CZ-3B R/B 4.4 16:42:43 10° SSW 16:48:12 65° ESE 17:17:01 10° NE
SL-8 R/B 3.7 17:22:41 10° WNW 17:27:29 84° NNE 17:32:16 10° ESE
Cosmos 1943 Rocket 2.3 17:25:30 10° NNW 17:31:04 81° WSW 17:36:40 10° SSE
Meteor 1-21 Rocket 4.2 17:26:30 10° N 17:32:01 62° ENE 17:37:29 10° SSE
NOSS 3-3 (A) 4.3 17:26:32 10° SW 17:32:19 70° NW 17:38:50 10° NNE
NOSS 3-3 (C) 4.3 17:26:38 10° SW 17:32:25 71° NW 17:38:56 10° NNE
ISS -2.5 17:33:15 10° WNW 17:36:24 37° SW 17:39:32 10° SSE
Abrixas rocket 4.2 17:34:17 10° NW 17:36:29 19° N 17:38:42 10° NE
Cosmos 1758 4.4 17:32:55 10° SSW 17:36:55 52° W 17:40:55 10° N
Cosmos 2369 Rocket 2.2 17:34:43 10° NNW 17:40:26 90° SW 17:46:04 10° SSE
SL-4 R/B 2.2 17:38:11 10° WSW 17:41:33 55° NNW 17:44:54 10° NE
Cosmos 292 Rocket 4.0 17:37:22 10° NNW 17:42:11 75° WSW 17:46:59 10° SSE
FALCON 9 DEB 4.0 17:40:01 10° SSW 17:43:07 30° SE 17:46:14 10° ENE
H-2A R/B 2.2 17:39:08 10° SSE 17:44:14 57° ENE 17:49:14 10° N
Cosmos 1340 Rocket 4.1 17:42:49 10° SE 17:45:55 21° E 17:49:01 10° NE
CZ-2C R/B 3.1 17:41:51 10° SSE 17:46:36 52° ENE 17:51:14 10° N
CZ-2C R/B 4.5 17:44:53 10° NE 17:49:03 31° E 17:53:08 10° SSE
Cosmos 1703 3.9 17:48:05 10° N 17:51:46 36° ENE 17:55:20 11° SE
Cosmos 1328 4.5 17:48:31 10° N 17:52:13 35° ENE 17:55:42 11° SE
SL-08 RB Rocket 4.1 17:53:15 10° SE 17:57:33 43° ENE 18:01:55 10° N
USA 234 4.1 17:52:35 10° ENE 17:57:59 27° SE 18:03:22 10° S
ATLAS 2AS CENTAUR R/B 3.2 17:50:58 10° NNW 17:58:21 52° NE 18:03:54 16° ESE
Cosmos 1908 3.4 17:56:17 10° SSE 17:59:58 48° E 18:03:44 10° NNE
CZ-4 R/B 4.3 17:57:48 10° SW 18:00:11 16° W 18:02:35 10° NW
Cosmos 1437 2.5 17:57:57 10° N 18:00:59 88° E 18:03:59 10° S
STARLINK-52 3.2 17:59:28 10° SSW 18:02:31 44° SE 18:04:55 15° ENE
Cosmos 1943 3.7 17:57:21 10° SW 18:02:56 63° WNW 18:08:37 10° NNE
Cosmos 2263 4.3 17:59:25 10° NNW 18:05:02 79° WSW 18:10:38 10° SSE
Ariane Rocket 3.1 18:00:30 10° S 18:05:33 79° WSW 18:10:39 10° NNW
SeaSat 1 4.2 18:01:56 10° N 18:06:25 36° NW 18:10:52 10° WSW
MONITOR-E 3.6 18:04:57 14° SSE 18:07:09 83° ENE 18:09:47 10° N
IRS-1A Rocket 4.4 18:03:22 10° SSE 18:09:03 81° WSW 18:14:55 10° NNW
Cosmos 1140 Rocket 3.7 18:04:43 10° S 18:09:37 44° ESE 18:14:32 10° NNE
Cosmos 1953 3.9 18:07:14 10° SSW 18:10:57 39° WNW 18:14:42 10° N
ATLAS 5 CENTAUR R/B 4.2 18:06:52 10° S 18:11:16 17° SE 18:14:21 15° SE
Cosmos 1656 Rocket 3.6 18:08:51 10° NNW 18:14:32 82° ENE 18:19:21 14° SSE
Cosmos 1726 3.3 18:12:08 10° SSW 18:15:43 45° W 18:19:20 10° N
Cosmos 1190 Rocket 4.0 18:10:32 10° S 18:15:44 60° ESE 18:20:57 10° NNE
Cosmos 2184 Rocket 4.0 18:10:40 10° N 18:16:58 85° W 18:23:10 10° S
Meteor 1-11 4.3 18:12:23 10° N 18:18:03 58° ENE 18:22:39 15° SSE
MetOp-A 4.3 18:14:17 16° SE 18:18:24 53° ENE 18:23:36 10° N
COSMOS 2455 3.7 18:13:34 10° NNW 18:19:02 35° NE 18:22:02 22° E
Cosmos 2058 Rocket 3.2 18:15:18 10° S 18:19:41 54° E 18:24:05 10° NNE
DMSP B5D2-2 4.2 18:16:47 10° NNE 18:21:53 51° E 18:26:58 10° S
CZ-2C R/B 2.9 18:16:59 10° NNE 18:21:54 43° E 18:26:50 10° S
Cosmos 614 Rocket 4.0 18:16:53 10° SSW 18:22:06 83° WNW 18:27:21 10° NNE
ARGOS 3.3 18:19:13 10° S 18:24:35 75° WSW 18:29:59 10° NNW
Cosmos 1726 Rocket 3.7 18:23:24 10° SSW 18:27:47 77° W 18:32:15 10° N
FREGAT/IRIS 4.1 18:25:47 10° SSW 18:28:16 33° W 18:30:47 10° NNW
Resurs 01 Rocket 2.1 18:30:56 33° ESE 18:32:08 41° ENE 18:36:17 10° N
Nadezhda 1 Rocket 4.1 18:27:51 10° S 18:34:15 83° W 18:40:39 10° N
SL-24 R/B 3.7 18:30:28 10° N 18:34:28 85° WNW 18:38:09 10° SSW
Meteor 2-17 Rocket 4.4 18:29:55 10° N 18:36:06 86° E 18:41:44 13° S
USA 186 3.6 18:33:37 10° SSW 18:36:39 31° W 18:39:35 10° NNW
Cosmos 2181 Rocket 4.4 18:35:49 26° SE 18:38:39 40° E 18:44:21 10° NNE
Cosmos 2154 Rocket 4.0 18:33:13 10° N 18:39:37 89° W 18:45:39 11° S
APEX 4.1 18:34:20 10° NNW 18:40:45 86° ENE 18:43:26 31° SSE
SL-8 Rocket 4.5 18:36:45 10° N 18:42:40 40° ENE 18:44:32 33° ESE
Cosmos 407 Rocket 3.9 18:38:21 10° SSW 18:43:27 64° WNW 18:48:34 10° NNE
Cosmos 921 Rocket 3.0 18:40:12 10° N 18:44:19 55° ENE 18:44:56 50° ESE
Cosmos 676 Rocket 3.9 18:39:15 10° S 18:44:28 65° ESE 18:49:41 10° NNE
Cosmos 2228 4.5 18:42:38 10° SSW 18:46:39 38° WNW 18:50:43 10° N
SPOT 3 Rocket 3.6 18:43:53 19° S 18:47:38 78° WSW 18:52:51 10° NNW
STARLINK-1234 4.5 18:45:14 10° NNW 18:47:39 25° NNE 18:47:39 25° NNE
STARLINK-1209 4.4 18:46:24 10° NNW 18:48:45 26° NNE 18:48:45 26° NNE
MINOTAUR IV R/B 4.4 18:48:44 10° SSW 18:53:12 80° ESE 18:57:42 10° NNE
SJ-6B 4.4 18:50:40 10° SSW 18:54:25 35° W 18:58:14 10° NNW
Cosmos 1461 3.0 18:50:07 10° NNW 18:54:42 78° ENE 18:55:35 57° SE
Cosmos 2366 rocket 4.4 18:49:45 10° N 18:55:29 39° ENE 18:56:23 37° E
STARLINK-29 4.2 18:55:03 10° WSW 18:58:06 41° NNW 18:58:47 35° N
ATLAS 5 CENTAUR R/B 2.5 18:55:22 10° SW 18:59:20 47° NW 19:03:46 10° NNE
Terra 4.0 19:03:34 12° NE 19:03:34 12° NE 19:04:44 10° NNE
Cosmos 1954 Rocket 4.0 19:02:20 10° SSW 19:07:35 82° WNW 19:12:50 10° NNE
SPOT 1/Viking Rocket 4.3 19:12:00 36° ENE 19:12:00 36° ENE 19:16:24 10° N
Abrixas rocket 4.2 19:09:55 10° NW 19:11:30 24° NNW 19:11:30 24° NNW
Cosmos 2058 4.2 19:12:08 10° N 19:14:35 30° NNE 19:14:35 30° NNE
NOSS 3-4 (A) 4.2 19:10:02 10° NW 19:17:06 64° WSW 19:20:34 34° S
NOSS 3-4 (C) 4.1 19:10:08 10° NW 19:17:12 64° WSW 19:20:38 35° S
Cosmos 1300 3.2 19:17:24 57° WNW 19:17:24 57° WNW 19:21:08 10° N
In-Cosmos 22 Rocket 4.2 19:14:20 10° N 19:20:10 64° ENE 19:20:35 62° ESE
SL-4 R/B 4.1 19:19:22 10° NW 19:21:41 17° NNW 19:22:39 15° N
Cosmos 1076 Rocket 4.5 19:19:23 10° N 19:22:14 38° NNE 19:22:14 38° NNE
Cosmos 1763 Rocket 4.3 19:26:30 10° N 19:30:28 37° NE 19:30:28 37° NE
MetOp-B 4.0 19:33:00 76° SSW 19:33:23 82° WSW 19:38:46 10° NNW
USA 234 3.2 19:34:50 10° NE 19:41:24 81° NW 19:47:56 10° SW
Iridium 4 Rocket 4.4 19:42:33 10° N 19:44:57 33° N 19:44:57 33° N
ATLAS 2AS CENTAUR R/B 3.9 19:42:29 10° NW 19:49:01 35° WSW 19:51:22 28° SSW
CZ-4C R/B 4.2 19:49:18 10° NNW 19:55:15 28° NE 19:56:49 26° ENE
Spot 2 Rocket 4.1 19:56:53 54° W 19:56:53 54° W 20:01:29 10° NNW
Meteor 2-1 Rocket 4.4 19:56:24 70° W 19:56:37 71° W 20:02:34 10° N
COSMOS 2455 3.7 19:59:25 10° NW 20:05:01 41° WSW 20:05:11 41° WSW
Cosmos 1697 Rocket 3.9 20:00:11 10° N 20:04:03 33° NNE 20:04:03 33° NNE
Resurs 01 Rocket 3.9 20:08:29 18° W 20:08:47 18° W 20:11:47 10° NW
ATLAS CENTAUR R/B 4.3 20:16:31 10° N 20:16:45 11° N 20:16:45 11° N
ERS-1 Rocket 4.3 20:27:20 36° NW 20:27:20 36° NW 20:30:24 10° NNW
Cosmos 1980 Rocket 3.8 20:29:31 10° N 20:32:34 27° NNE 20:32:34 27° NNE
Terra 3.9 20:42:27 25° NNW 20:42:27 25° NNW 20:44:25 10° NNW
Cosmos 2082 Rocket 4.3 21:03:59 19° NNE 21:03:59 19° NNE 21:05:29 10° NNE
CZ-4C R/B 3.7 21:37:13 10° NW 21:42:00 46° NW 21:42:00 46° NW
SL-16 R/B 4.4 22:02:24 10° NNW 22:04:14 21° NNW 22:04:14 21° NNW
Cosmos 2360 Rocket 4.5 22:06:34 10° N 22:08:30 19° N 22:08:30 19° N
Cosmos 2322 Rocket 4.5 22:10:52 10° NNW 22:12:34 20° N 22:12:34 20° N
Cosmos 2219 Rocket 4.4 23:05:01 10° N 23:07:20 21° NNE 23:07:20 21° NNE
Resurs 1-4 Rocket 4.2 23:35:52 10° NNE 23:37:53 22° NE 23:37:53 22° NE
